Location: Newark
(50.0821°N, 8.2414°E)
Time: 12:00:50
(UTC+00:00)

ISS - Pass Details

Date: 28 July 2019
Orbit: 410 x 420 km, 51.6° (Epoch: 21 August)

Event Time Altitude Azimuth Distance (km) Brightness Sun altitude
Rises 22:14:47 0° 286° (WNW) 2,371 0.6 -18.9°
Reaches altitude 10° 22:17:07 10° 272° (W) 1,501 -0.7 -19.0°
Enters shadow 22:18:56 21° 244° (WSW) 997 -2.0 -19.1°
